Total_Precipitation_Accumulation
1.16 1.10 0.97 0.98 0.92 0.92 0.99 1.03 1.04 1.09 1.16 1.11 1.05 1.05 1.09 1.06 0.99 0.99 1.26 1.85 2.76 3.42 3.60 3.49 2.96 2.68 2.52 2.25 2.16 2.32 2.51 2.57 2.48 2.38 2.47 2.55 2.48 2.30 2.23 2.19 2.23 2.20 2.21
1.05 1.07 1.04 1.06 1.05 1.01 0.99 0.98 0.97 1.11 1.15 1.18 1.15 1.09 1.06 0.96 0.97 1.11 1.32 1.50 1.75 2.37 3.26 3.55 3.33 3.08 2.88 2.57 2.38 2.35 2.40 2.40 2.33 2.32 2.34 2.34 2.26 2.04 1.97 2.16 2.36 2.21 2.12
1.02 1.05 1.06 1.08 1.07 1.08 1.05 1.06 1.09 1.17 1.21 1.29 1.32 1.15 1.08 1.02 0.99 1.07 1.20 1.31 1.15 1.27 2.01 2.86 3.26 3.14 3.05 2.82 2.52 2.43 2.42 2.40 2.25 2.35 2.30 2.27 2.13 2.04 1.99 2.22 2.41 2.30 2.10
0.99 1.10 1.11 1.13 1.19 1.11 1.09 1.19 1.25 1.34 1.38 1.43 1.43 1.24 1.07 1.17 1.08 1.05 1.18 1.20 1.17 1.09 1.32 1.72 2.18 2.53 2.96 3.12 2.91 2.66 2.50 2.34 2.13 2.23 2.25 2.17 2.05 2.04 2.02 2.27 2.30 2.29 2.19
1.16 1.28 1.34 1.34 1.35 1.36 1.30 1.22 1.26 1.38 1.52 1.52 1.35 1.26 1.18 1.21 1.21 1.15 1.31 1.28 1.25 1.23 1.29 1.22 1.31 1.63 2.25 2.85 3.01 2.92 2.66 2.34 2.13 2.14 2.16 2.02 2.07 2.13 2.05 2.13 2.15 2.11 2.10
1.39 1.56 1.61 1.50 1.53 1.65 1.71 1.53 1.58 1.50 1.47 1.56 1.38 1.33 1.32 1.27 1.25 1.31 1.34 1.42 1.52 1.35 1.34 1.27 1.20 1.07 1.41 1.94 2.44 2.84 2.91 2.72 2.44 2.33 2.34 2.04 1.99 2.07 2.08 2.03 2.00 2.00 1.98
1.73 1.93 1.98 1.95 1.94 1.96 1.93 1.85 2.01 1.93 1.64 1.58 1.82 1.80 1.62 1.42 1.34 1.33 1.37 1.58 1.67 1.57 1.59 1.50 1.39 1.25 1.14 1.16 1.53 2.35 2.85 3.04 2.96 2.68 2.58 2.36 1.99 1.90 1.98 1.89 1.89 1.95 1.99
1.96 2.00 2.24 2.37 2.34 2.51 2.52 2.29 2.42 2.45 2.05 1.80 2.12 2.47 2.17 1.92 1.47 1.36 1.47 1.52 1.60 1.68 1.73 1.57 1.42 1.32 1.29 1.26 1.14 1.61 2.12 2.73 3.07 2.83 2.82 2.82 2.26 1.98 1.85 1.80 1.87 1.91 1.99
2.15 2.19 2.30 2.47 2.48 2.57 2.75 2.80 2.71 2.83 2.64 2.22 2.10 2.47 2.40 2.21 1.98 1.60 1.50 1.57 1.70 1.75 1.77 1.74 1.56 1.30 1.29 1.37 1.20 1.14 1.38 1.72 2.40 2.78 2.96 3.13 2.67 2.21 1.84 1.79 1.81 1.77 1.94
2.40 2.48 2.49 2.57 2.60 2.61 2.72 2.84 2.78 2.94 3.07 2.68 2.34 2.12 1.97 1.98 2.14 1.94 1.67 1.59 1.72 1.72 1.72 1.74 1.76 1.59 1.41 1.46 1.35 1.12 1.12 1.24 1.68 2.36 2.77 3.15 2.99 2.51 2.03 1.93 2.00 1.94 1.97
2.53 2.57 2.62 2.75 2.75 2.73 2.68 2.89 2.96 3.06 3.01 2.95 2.81 2.61 2.45 2.22 1.87 2.01 2.01 1.82 1.70 1.57 1.62 1.74 1.90 1.84 1.65 1.59 1.67 1.32 1.09 1.10 1.26 1.85 2.37 3.05 3.20 2.81 2.52 2.36 2.20 2.11 1.93
2.58 2.46 2.38 2.54 2.61 2.65 2.62 2.79 2.93 3.06 3.06 3.09 3.02 2.72 2.70 2.60 2.24 2.21 2.05 1.87 1.88 1.67 1.57 1.65 1.70 1.70 1.67 1.64 1.55 1.51 1.21 1.07 1.12 1.41 1.87 2.43 3.11 3.09 2.93 2.84 2.60 2.49 2.29
2.41 2.41 2.32 2.33 2.37 2.34 2.33 2.43 2.48 2.55 2.72 2.91 2.81 2.57 2.51 2.34 2.33 2.43 2.34 2.07 1.87 1.62 1.60 1.56 1.54 1.54 1.51 1.55 1.59 1.65 1.27 1.06 1.06 1.20 1.53 1.85 2.35 2.89 3.04 2.90 2.82 2.90 2.94
2.12 2.17 2.18 2.15 2.20 2.24 2.20 2.30 2.32 2.31 2.34 2.40 2.35 2.45 2.50 2.34 2.28 2.28 2.35 2.52 2.27 1.99 1.78 1.60 1.56 1.58 1.53 1.49 1.61 1.67 1.34 1.19 1.07 1.07 1.23 1.52 1.86 2.33 2.73 2.74 2.80 2.99 3.11
1.67 1.73 1.79 1.91 2.04 2.10 2.12 2.23 2.33 2.30 2.21 2.18 2.28 2.36 2.30 2.24 2.23 2.16 2.17 2.35 2.49 2.33 2.12 1.88 1.73 1.66 1.64 1.55 1.63 1.45 1.41 1.35 1.18 1.14 1.15 1.13 1.33 1.68 1.96 2.21 2.45 2.44 2.61
1.31 1.36 1.46 1.66 1.95 2.08 2.10 2.17 2.24 2.28 2.28 2.21 2.28 2.39 2.43 2.39 2.41 2.36 2.25 2.24 2.20 2.25 2.15 1.90 1.71 1.63 1.75 1.61 1.73 1.46 1.42 1.62 1.40 1.30 1.21 1.08 1.08 1.18 1.33 1.57 1.86 2.02 2.07
1.19 1.26 1.32 1.48 1.66 1.87 2.07 2.22 2.22 2.19 2.19 2.16 2.08 2.19 2.34 2.38 2.49 2.53 2.55 2.45 2.31 2.26 2.18 1.98 1.78 1.67 1.85 1.85 1.74 1.64 1.49 1.44 1.45 1.45 1.31 1.24 1.17 1.09 1.13 1.23 1.49 1.70 1.90
1.08 1.11 1.26 1.48 1.59 1.67 1.74 1.84 1.89 1.92 1.96 2.03 1.98 1.95 2.01 2.09 2.21 2.37 2.46 2.44 2.44 2.34 2.27 2.27 2.07 1.82 1.74 1.80 1.82 1.88 1.76 1.52 1.47 1.58 1.51 1.41 1.34 1.23 1.12 1.09 1.21 1.31 1.47
1.10 1.10 1.19 1.34 1.41 1.48 1.54 1.59 1.71 1.80 1.82 1.79 1.81 1.71 1.69 1.78 1.91 2.05 2.13 2.22 2.37 2.40 2.42 2.40 2.33 2.12 1.86 1.85 1.91 1.92 1.93 1.97 1.70 1.61 1.62 1.57 1.52 1.48 1.37 1.19 1.11 1.13 1.16
1.12 1.15 1.27 1.33 1.37 1.36 1.48 1.54 1.61 1.59 1.53 1.46 1.49 1.45 1.44 1.46 1.56 1.72 1.85 2.05 2.25 2.37 2.45 2.46 2.41 2.19 2.00 1.92 1.89 1.93 2.03 2.08 2.04 1.79 1.69 1.61 1.68 1.63 1.48 1.35 1.21 1.16 1.17
1.13 1.20 1.27 1.35 1.40 1.41 1.43 1.49 1.45 1.36 1.34 1.31 1.27 1.13 1.12 1.19 1.22 1.32 1.33 1.61 1.88 2.11 2.24 2.30 2.30 2.16 1.94 1.83 1.70 1.73 1.88 2.06 2.12 2.05 1.95 1.68 1.62 1.55 1.51 1.48 1.38 1.29 1.22
1.03 1.08 1.14 1.31 1.42 1.32 1.47 1.42 1.25 1.14 1.12 1.16 1.12 1.01 0.97 1.01 0.95 0.95 0.98 1.21 1.52 1.69 1.85 2.04 2.10 1.98 1.81 1.73 1.79 1.77 1.77 1.83 1.86 1.77 1.75 1.75 1.66 1.58 1.52 1.49 1.51 1.47 1.37
0.96 1.01 1.00 1.14 1.22 1.32 1.33 1.15 1.16 1.09 1.09 1.09 1.10 1.11 1.01 0.94 1.04 0.92 0.88 0.98 1.06 1.18 1.35 1.62 1.83 1.81 1.90 1.82 1.72 1.64 1.65 1.68 1.68 1.73 1.74 1.73 1.62 1.53 1.44 1.41 1.56 1.46 1.45
0.86 0.90 0.91 0.90 0.96 1.12 1.14 1.00 1.05 1.00 1.11 1.15 1.16 1.24 1.24 1.14 1.13 1.21 1.12 1.11 1.06 0.99 1.10 1.02 1.21 1.59 1.76 1.83 1.80 1.82 1.91 1.83 1.67 1.67 1.68 1.69 1.59 1.48 1.34 1.26 1.37 1.29 1.22
0.84 0.82 0.86 0.86 0.89 0.95 0.97 0.90 0.94 0.97 1.12 1.14 1.08 1.20 1.24 1.16 1.25 1.38 1.44 1.43 1.33 1.15 1.27 1.29 1.18 1.30 1.48 1.55 1.67 1.77 1.81 1.74 1.66 1.55 1.42 1.39 1.32 1.35 1.40 1.31 1.26 1.31 1.22
0.86 0.84 0.80 0.77 0.78 0.79 0.88 0.81 0.91 0.97 1.05 1.09 1.11 1.15 1.31 1.22 1.21 1.20 1.27 1.38 1.34 1.17 1.05 1.08 1.05 0.95 0.90 1.02 1.25 1.38 1.65 1.78 1.72 1.60 1.39 1.34 1.35 1.34 1.36 1.26 1.16 1.19 1.20